sat.trackr.live / text

‹ back to catalog

STARLINK-11394 [DTC]

NORAD 62218 · 2024-231A

PAYLOAD ACTIVE UNKNOWN

§ Identity

Operator
Country
US
Launch date
2024-12-05
Launch site
AFWTR
Launch vehicle
Mass (kg)
RCS (m²)

Purposes: comms

External: N2YO · Heavens-Above · Gunter

§ Orbital elements

Epoch: 2026-09-21T11:42:02.433888Z

Period
91.73 min
Inclination
53.1571°
Eccentricity
0.0000999
Mean motion
15.69754596 rev/d
Perigee alt
358.9 km
Apogee alt
360.3 km
Semi-major
6,737.7 km
B*
1.3381e-3
RAAN
216.0638°
Arg perigee
93.2091°
Mean anomaly
266.9041°
Rev number
10,416

§ Raw data

STARLINK-11394 [DTC]1 62218U 24231A   26264.48752817  .00165091  00000+0  13381-2 0  99922 62218  53.1571 216.0638 0000999  93.2091 266.9041 15.69754596104167

JSON: /api/v1/satellites/62218 · /tle

For live sub-satellite position, see the globe view (requires WebGL).

§ Visibility from observer

Set your observer location to see the next 7 days of passes ≥ 10°. The values pass through the URL so the page stays shareable.

No JS? Fill the form by hand. The geolocation button needs JavaScript.